EW1275 Weather Reports


time (UTC)temp
C
wind
direction
speed
KPH
gust
KPH
rain 1hr
cm
rain 24hr
cm
rain mn
cm
humidity
%
barometer
mb
20200229100335 15 251 4.8 8.0 0.00 0.00 0.00 67 1017.8
20200229095843 15 247 3.2 6.4 0.00 0.00 0.00 64 1017.8
20200229095329 14 247 3.2 4.8 0.00 0.00 0.00 56 1017.9
20200229094840 14 211 0.0 6.4 0.00 0.00 0.00 44 1017.9
20200229094326 13 213 0.0 6.4 0.00 0.00 0.00 43 1018.0
20200229093833 13 219 3.2 6.4 0.00 0.00 0.00 46 1018.0
20200229093340 13 223 3.2 6.4 0.00 0.00 0.00 47 1018.1
20200229092827 13 178 1.6 8.0 0.00 0.00 0.00 48 1018.0
20200229092333 13 155 6.4 8.0 0.00 0.00 0.00 48 1018.0
20200229091823 13 169 3.2 8.0 0.00 0.00 0.00 49 1018.0
20200229091332 12 190 1.6 4.8 0.00 0.00 0.00 51 1018.1
20200229090840 13 166 1.6 11.3 0.00 0.00 0.00 51 1018.2
20200229090331 13 159 4.8 16.1 0.00 0.00 0.00 50 1018.1
20200229085837 13 144 11.3 16.1 0.00 0.00 0.00 51 1018.1
20200229085344 12 134 6.4 8.0 0.00 0.00 0.00 55 1018.2
20200229084831 12 151 4.8 8.0 0.00 0.00 0.00 58 1018.3
20200229084339 12 147 4.8 6.4 0.00 0.00 0.00 58 1018.4
20200229083825 12 148 3.2 4.8 0.00 0.00 0.00 58 1018.4
20200229083334 12 146 1.6 8.0 0.00 0.00 0.00 56 1018.4
20200229082844 12 140 4.8 8.0 0.00 0.00 0.00 55 1018.4
20200229082331 12 140 6.4 11.3 0.00 0.00 0.00 57 1018.4
20200229081838 12 151 8.0 14.5 0.00 0.00 0.00 56 1018.4
20200229081329 12 145 9.7 14.5 0.00 0.00 0.00 56 1018.4
20200229080837 12 159 9.7 12.9 0.00 0.00 0.00 55 1018.4
20200229080342 12 142 8.0 11.3 0.00 0.00 0.00 56 1018.5
20200229075829 12 129 6.4 9.7 0.00 0.00 0.00 59 1018.6
20200229075337 12 175 3.2 8.0 0.00 0.00 0.00 60 1018.6
20200229074843 12 184 4.8 12.9 0.00 0.00 0.00 60 1018.6
20200229074330 12 158 8.0 14.5 0.00 0.00 0.00 58 1018.6
20200229073837 11 156 9.7 14.5 0.00 0.00 0.00 60 1018.7
20200229073345 12 136 6.4 11.3 0.00 0.00 0.00 61 1018.8
20200229072836 12 144 9.7 12.9 0.00 0.00 0.00 60 1018.9
20200229072324 12 146 9.7 12.9 0.00 0.00 0.00 61 1018.9
20200229071838 12 119 9.7 12.9 0.00 0.00 0.00 61 1019.0
20200229071327 12 123 9.7 14.5 0.00 0.00 0.00 61 1019.1
20200229070834 12 112 9.7 16.1 0.00 0.00 0.00 61 1019.1
20200229070341 12 119 9.7 12.9 0.00 0.00 0.00 62 1019.1
20200229065828 12 102 4.8 11.3 0.00 0.00 0.00 61 1019.2
20200229065335 12 108 6.4 12.9 0.00 0.00 0.00 61 1019.2
20200229064823 12 138 8.0 12.9 0.00 0.00 0.00 62 1019.3
20200229064337 12 139 6.4 9.7 0.00 0.00 0.00 65 1019.4
20200229063827 11 136 6.4 12.9 0.00 0.00 0.00 67 1019.4
20200229063335 11 154 8.0 14.5 0.00 0.00 0.00 68 1019.4
20200229062842 12 158 9.7 16.1 0.00 0.00 0.00 67 1019.3
20200229062329 12 147 12.9 16.1 0.00 0.00 0.00 68 1019.4
20200229061834 11 153 9.7 14.5 0.00 0.00 0.00 70 1019.5
20200229061325 11 144 8.0 9.7 0.00 0.00 0.00 72 1019.6
20200229060834 12 134 4.8 8.0 0.00 0.00 0.00 73 1019.7
20200229060341 12 136 6.4 8.0 0.00 0.00 0.00 73 1019.7
20200229055835 12 141 4.8 11.3 0.00 0.00 0.00 72 1019.7
20200229055342 12 142 6.4 12.9 0.00 0.00 0.00 72 1019.6
20200229054832 13 143 8.0 12.9 0.00 0.00 0.00 71 1019.7
20200229054339 13 150 8.0 12.9 0.00 0.00 0.00 70 1019.9
20200229053828 13 134 8.0 12.9 0.00 0.00 0.00 71 1019.9
20200229053338 13 148 8.0 11.3 0.00 0.00 0.00 73 1020.0
20200229052825 13 146 8.0 9.7 0.00 0.00 0.00 72 1020.0
20200229052334 13 134 8.0 9.7 0.00 0.00 0.00 70 1020.2
20200229051844 13 135 4.8 6.4 0.00 0.00 0.00 69 1020.2
20200229051336 14 134 4.8 8.0 0.00 0.00 0.00 69 1020.3
20200229050842 14 132 6.4 8.0 0.00 0.00 0.00 69 1020.3
20200229050329 14 104 4.8 8.0 0.00 0.00 0.00 68 1020.3
20200229045836 14 96 3.2 9.7 0.00 0.00 0.00 66 1020.3
20200229045344 15 148 6.4 9.7 0.00 0.00 0.00 64 1020.1
20200229044830 15 160 6.4 11.3 0.00 0.00 0.00 64 1020.1
20200229044336 15 155 8.0 11.3 0.00 0.00 0.00 65 1020.1
20200229043825 15 169 8.0 11.3 0.00 0.00 0.00 68 1019.9
20200229043335 15 148 8.0 11.3 0.00 0.00 0.00 68 1020.0
20200229042826 15 171 4.8 8.0 0.00 0.00 0.00 66 1019.9
20200229042336 15 193 4.8 8.0 0.00 0.00 0.00 63 1019.9
20200229041826 16 196 3.2 8.0 0.00 0.00 0.00 59 1019.9
20200229041332 16 227 4.8 9.7 0.00 0.00 0.00 58 1019.8
20200229040839 16 223 6.4 14.5 0.00 0.00 0.00 66 1019.8
20200229040326 16 254 8.0 14.5 0.00 0.00 0.00 69 1019.8
20200229035832 16 259 8.0 14.5 0.00 0.00 0.00 70 1019.6
20200229035322 16 265 6.4 9.7 0.00 0.00 0.00 70 1019.5
20200229034832 16 254 4.8 11.3 0.00 0.00 0.00 70 1019.5
20200229034339 17 235 8.0 14.5 0.00 0.00 0.00 70 1019.5
20200229033830 17 253 9.7 14.5 0.00 0.00 0.00 69 1019.6
20200229033336 17 279 6.4 16.1 0.00 0.00 0.00 66 1019.6
20200229032825 17 244 8.0 16.1 0.00 0.00 0.00 71 1019.5
20200229032335 17 248 9.7 16.1 0.00 0.00 0.00 72 1019.4
20200229031822 17 257 6.4 11.3 0.00 0.00 0.00 70 1019.4
20200229031333 17 259 4.8 11.3 0.00 0.00 0.00 68 1019.4
20200229030839 17 231 4.8 11.3 0.00 0.00 0.00 64 1019.5
20200229030328 17 253 4.8 16.1 0.00 0.00 0.00 59 1019.4
20200229025835 18 264 9.7 16.1 0.00 0.00 0.00 57 1019.2
20200229025326 18 286 9.7 16.1 0.00 0.00 0.00 55 1019.2
20200229024833 17 226 3.2 11.3 0.00 0.00 0.00 56 1019.3
20200229024340 17 133 0.0 3.2 0.00 0.00 0.00 56 1019.1
20200229023827 17 133 0.0 3.2 0.00 0.00 0.00 57 1019.0
20200229023334 17 133 1.6 4.8 0.00 0.00 0.00 53 1018.9
20200229022841 17 129 1.6 8.0 0.00 0.00 0.00 54 1018.7
20200229022327 17 140 6.4 12.9 0.00 0.00 0.00 53 1018.8
20200229021835 17 136 4.8 14.5 0.00 0.00 0.00 57 1018.7
20200229021342 17 146 8.0 14.5 0.00 0.00 0.00 54 1018.4
20200229020833 18 157 4.8 8.0 0.00 0.00 0.00 50 1018.5
20200229020340 18 168 1.6 8.0 0.00 0.00 0.00 49 1018.3
20200229015828 18 163 4.8 8.0 0.00 0.00 0.00 49 1018.3
20200229015339 18 182 3.2 6.4 0.00 0.00 0.00 52 1018.5
20200229014825 19 234 0.0 3.2 0.00 0.00 0.00 53 1018.5
20200229014335 19 234 1.6 6.4 0.00 0.00 0.00 49 1018.5
20200229013822 20 234 0.0 9.7 0.00 0.00 0.00 49 1018.5
20200229013332 20 246 3.2 9.7 0.00 0.00 0.00 46 1018.7
20200229012839 20 261 4.8 8.0 0.00 0.00 0.00 39 1018.6
20200229012329 20 223 3.2 8.0 0.00 0.00 0.00 37 1018.4
20200229011836 20 235 0.0 8.0 0.00 0.00 0.00 35 1018.3
20200229011326 20 236 1.6 11.3 0.00 0.00 0.00 35 1018.3
20200229010834 20 249 3.2 11.3 0.00 0.00 0.00 40 1018.1
20200229010341 20 225 6.4 11.3 0.00 0.00 0.00 40 1018.1
20200229005828 20 287 8.0 11.3 0.00 0.00 0.00 38 1018.0
20200229005335 20 271 8.0 11.3 0.00 0.00 0.00 38 1018.0
20200229004842 20 278 8.0 12.9 0.00 0.00 0.00 37 1017.8
20200229004328 20 274 8.0 12.9 0.00 0.00 0.00 40 1017.9
20200229003834 20 266 8.0 12.9 0.00 0.00 0.00 39 1018.0
20200229003328 20 267 4.8 9.7 0.00 0.00 0.00 45 1018.0
20200229002838 20 312 4.8 9.7 0.00 0.00 0.00 41 1017.9
20200229002325 20 283 1.6 11.3 0.00 0.00 0.00 44 1017.9
20200229001832 20 293 3.2 11.3 0.00 0.00 0.00 38 1017.8
20200229001342 20 293 8.0 12.9 0.00 0.00 0.00 40 1017.7
20200229000831 20 269 8.0 11.3 0.00 0.00 0.00 43 1017.7
20200229000338 18 271 4.8 9.7 0.00 0.00 0.00 62 1017.7
20200228235826 18 283 6.4 9.7 0.00 0.00 0.00 69 1017.8
20200228235331 18 355 3.2 4.8 0.00 0.00 0.00 73 1017.8
20200228234825 18 355 3.2 4.8 0.00 0.00 0.00 73 1017.7
20200228234334 18 320 3.2 8.0 0.00 0.00 0.00 73 1017.6
20200228233841 18 327 4.8 8.0 0.00 0.00 0.00 73 1017.6
20200228233328 19 325 4.8 8.0 0.00 0.00 0.00 72 1017.5
20200228232835 19 345 4.8 8.0 0.00 0.00 0.00 72 1017.5
20200228232322 19 338 4.8 8.0 0.00 0.00 0.00 73 1017.5
20200228231832 19 327 3.2 4.8 0.00 0.00 0.00 72 1017.6
20200228231338 19 326 3.2 6.4 0.00 0.00 0.00 72 1017.6
20200228230828 19 334 4.8 8.0 0.00 0.00 0.00 72 1017.7
20200228230342 18 317 4.8 8.0 0.00 0.00 0.00 72 1017.7
20200228225831 19 331 6.4 11.3 0.00 0.00 0.00 73 1017.6
20200228225339 18 332 6.4 12.9 0.00 0.00 0.00 72 1017.7
20200228224825 19 327 8.0 12.9 0.00 0.00 0.00 71 1017.7
20200228224332 19 350 8.0 11.3 0.00 0.00 0.00 70 1017.7
20200228223839 19 342 8.0 12.9 0.00 0.00 0.00 68 1017.7
20200228223326 20 335 8.0 12.9 0.00 0.00 0.00 65 1017.7
20200228222832 20 332 4.8 12.9 0.00 0.00 0.00 58 1017.8
20200228222339 22 313 8.0 9.7 0.00 0.00 0.00 50 1017.7
20200228221829 22 340 4.8 9.7 0.00 0.00 0.00 36 1017.8
20200228221339 22 320 6.4 11.3 0.00 0.00 0.00 43 1017.7
20200228220826 23 317 4.8 19.3 0.00 0.00 0.00 38 1017.8
20200228220333 23 262 11.3 19.3 0.00 0.00 0.00 33 1017.8
20200228215840 23 265 9.7 17.7 0.00 0.00 0.00 35 1017.8
20200228215326 24 252 8.0 17.7 0.00 0.00 0.00 28 1017.8
20200228214833 24 246 8.0 14.5 0.00 0.00 0.00 32 1017.7
20200228214340 24 259 6.4 16.1 0.00 0.00 0.00 35 1017.7
20200228213827 23 266 11.3 20.9 0.00 0.00 0.00 31 1017.7
20200228213334 22 309 3.2 11.3 0.00 0.00 0.00 36 1017.8
20200228212826 21 292 6.4 11.3 0.00 0.00 0.00 46 1018.1
20200228212333 20 355 4.8 11.3 0.00 0.00 0.00 68 1018.1
20200228211839 20 17 8.0 11.3 0.00 0.00 0.00 72 1018.2
20200228211326 20 348 3.2 9.7 0.00 0.00 0.00 75 1018.4
20200228210832 19 337 6.4 9.7 0.00 0.00 0.00 75 1018.4
20200228210322 19 355 8.0 12.9 0.00 0.00 0.00 74 1018.4
20200228205832 19 350 8.0 14.5 0.00 0.00 0.00 72 1018.4
20200228205339 20 355 8.0 14.5 0.00 0.00 0.00 70 1018.4
20200228204826 20 350 9.7 17.7 0.00 0.00 0.00 68 1018.5
20200228204337 19 355 14.5 17.7 0.00 0.00 0.00 69 1018.4
20200228203843 19 21 12.9 17.7 0.00 0.00 0.00 70 1018.4
20200228203330 20 9 14.5 17.7 0.00 0.00 0.00 69 1018.5
20200228202837 20 5 11.3 16.1 0.00 0.00 0.00 64 1018.6
20200228202344 21 12 12.9 16.1 0.00 0.00 0.00 61 1018.6
20200228201832 21 9 11.3 14.5 0.00 0.00 0.00 59 1018.7
20200228201338 21 16 11.3 14.5 0.00 0.00 0.00 58 1018.8
20200228200825 21 17 9.7 12.9 0.00 0.00 0.00 50 1018.8
20200228200332 21 17 8.0 14.5 0.00 0.00 0.00 55 1018.9
20200228195821 21 5 9.7 14.5 0.00 0.00 0.00 45 1018.9
20200228195332 21 5 8.0 11.3 0.00 0.00 0.00 49 1019.0
20200228194839 22 340 6.4 9.7 0.00 0.00 0.00 41 1019.0
20200228194330 23 331 6.4 8.0 0.00 0.00 0.00 38 1019.1
20200228193836 23 327 4.8 8.0 0.00 0.00 0.00 47 1019.1
20200228193343 22 319 3.2 16.1 0.00 0.00 0.00 42 1019.0
20200228192830 21 271 9.7 17.7 0.00 0.00 0.00 40 1019.1
20200228192337 21 278 9.7 17.7 0.00 0.00 0.00 41 1019.2
20200228191826 21 312 12.9 19.3 0.00 0.00 0.00 40 1019.2
20200228191335 21 298 14.5 19.3 0.00 0.00 0.00 39 1019.3
20200228190827 21 263 12.9 19.3 0.00 0.00 0.00 39 1019.4
20200228190334 22 268 12.9 19.3 0.00 0.00 0.00 36 1019.5
20200228185841 21 242 11.3 17.7 0.00 0.00 0.00 38 1019.4
20200228185327 20 280 3.2 6.4 0.00 0.00 0.00 63 1019.5
20200228184837 21 351 3.2 6.4 0.00 0.00 0.00 63 1019.4
20200228184326 20 284 1.6 4.8 0.00 0.00 0.00 69 1019.4
20200228183833 20 301 1.6 4.8 0.00 0.00 0.00 70 1019.3
20200228183341 21 301 1.6 4.8 0.00 0.00 0.00 68 1019.4
20200228182827 20 325 3.2 4.8 0.00 0.00 0.00 62 1019.3
20200228182338 20 324 1.6 3.2 0.00 0.00 0.00 63 1019.3
20200228181825 20 324 1.6 4.8 0.00 0.00 0.00 68 1019.3
20200228181331 20 330 1.6 6.4 0.00 0.00 0.00 70 1019.4
20200228180838 20 287 1.6 6.4 0.00 0.00 0.00 69 1019.5
20200228180326 19 335 3.2 4.8 0.00 0.00 0.00 74 1019.5
20200228175832 19 340 3.2 4.8 0.00 0.00 0.00 73 1019.6
20200228175322 18 346 3.2 4.8 0.00 0.00 0.00 70 1019.4
20200228174832 18 346 1.6 4.8 0.00 0.00 0.00 69 1019.4
20200228174322 19 5 1.6 4.8 0.00 0.00 0.00 55 1019.4
20200228173835 18 360 0.0 6.4 0.00 0.00 0.00 69 1019.3
20200228173343 18 5 3.2 6.4 0.00 0.00 0.00 72 1019.4
20200228172829 17 5 4.8 8.0 0.00 0.00 0.00 72 1019.5
20200228172336 17 5 6.4 9.7 0.00 0.00 0.00 72 1019.6
20200228171844 18 5 4.8 8.0 0.00 0.00 0.00 72 1019.7
20200228171330 18 111 3.2 6.4 0.00 0.00 0.00 71 1019.7
20200228170837 18 65 3.2 6.4 0.00 0.00 0.00 67 1019.8
20200228170344 18 67 1.6 8.0 0.00 0.00 0.00 64 1020.0
20200228165831 18 111 4.8 12.9 0.00 0.00 0.00 64 1020.0
20200228165336 18 138 8.0 14.5 0.00 0.00 0.00 59 1020.1
20200228164831 18 148 9.7 14.5 0.00 0.00 0.00 53 1020.1
20200228164341 17 154 9.7 12.9 0.00 0.00 0.00 53 1020.2
20200228163828 16 171 4.8 12.9 0.00 0.00 0.00 57 1020.2
20200228163335 16 153 8.0 12.9 0.00 0.00 0.00 57 1020.1
20200228162841 15 178 8.0 11.3 0.00 0.00 0.00 58 1019.9
20200228162328 15 173 6.4 11.3 0.00 0.00 0.00 61 1019.8
20200228161837 15 180 4.8 11.3 0.00 0.00 0.00 61 1019.5
20200228161327 15 171 6.4 11.3 0.00 0.00 0.00 59 1019.6
20200228160834 15 146 6.4 11.3 0.00 0.00 0.00 55 1019.7
20200228160328 17 163 8.0 17.7 0.00 0.00 0.00 47 1019.7
20200228155838 18 167 8.0 17.7 0.00 0.00 0.00 46 1019.7
20200228155325 18 255 9.7 20.9 0.00 0.00 0.00 50 1019.5
20200228154831 18 250 11.3 20.9 0.00 0.00 0.00 52 1019.5
20200228154338 17 252 11.3 17.7 0.00 0.00 0.00 52 1019.3
20200228153826 17 250 9.7 17.7 0.00 0.00 0.00 52 1019.2
20200228153334 17 234 8.0 16.1 0.00 0.00 0.00 54 1019.2
20200228152844 17 255 6.4 19.3 0.00 0.00 0.00 47 1019.1
20200228152331 17 253 11.3 19.3 0.00 0.00 0.00 45 1019.2
20200228151842 15 246 4.8 12.9 0.00 0.00 0.00 42 1019.0
20200228151328 14 218 4.8 8.0 0.00 0.00 0.00 46 1018.6
20200228150835 13 164 6.4 8.0 0.00 0.00 0.00 47 1018.3
20200228150342 13 169 6.4 8.0 0.00 0.00 0.00 52 1018.3
20200228145829 13 186 3.2 8.0 0.00 0.00 0.00 53 1018.1
20200228145336 13 165 3.2 9.7 0.00 0.00 0.00 52 1017.9
20200228144826 16 166 4.8 11.3 0.00 0.00 0.00 47 1017.9
20200228144336 19 227 4.8 11.3 0.00 0.00 0.00 33 1017.9
20200228143842 18 241 6.4 14.5 0.00 0.00 0.00 33 1017.8
20200228143334 18 229 6.4 14.5 0.00 0.00 0.00 34 1017.6
20200228142840 18 224 8.0 19.3 0.00 0.00 0.00 35 1017.6
20200228142327 17 229 8.0 17.7 0.00 0.00 0.00 36 1017.7
20200228141834 17 224 6.4 11.3 0.00 0.00 0.00 37 1017.8
20200228141341 17 229 6.4 11.3 0.00 0.00 0.00 39 1017.7
20200228140827 17 248 1.6 9.7 0.00 0.00 0.00 32 1017.5
20200228140334 17 256 3.2 9.7 0.00 0.00 0.00 35 1017.5
20200228135840 17 257 3.2 8.0 0.00 0.00 0.00 42 1017.6
20200228135330 17 184 1.6 4.8 0.00 0.00 0.00 38 1017.6
20200228134840 17 180 3.2 4.8 0.00 0.00 0.00 28 1017.5
20200228134330 17 178 3.2 4.8 0.00 0.00 0.00 30 1017.3
20200228133839 17 178 1.6 3.2 0.00 0.00 0.00 30 1017.3
20200228133325 16 178 1.6 3.2 0.00 0.00 0.00 33 1017.2
20200228132833 16 178 1.6 3.2 0.00 0.00 0.00 32 1017.2
20200228132339 16 178 0.0 0.0 0.00 0.00 0.00 32 1017.2
20200228131826 16 178 0.0 4.8 0.00 0.00 0.00 34 1017.1
20200228131333 15 178 1.6 6.4 0.00 0.00 0.00 37 1017.1
20200228130840 15 178 4.8 8.0 0.00 0.00 0.00 40 1017.0
20200228130330 15 178 4.8 8.0 0.00 0.00 0.00 41 1017.1
20200228125822 16 147 3.2 8.0 0.00 0.00 0.00 37 1017.2
20200228125332 16 111 4.8 8.0 0.00 0.00 0.00 35 1017.2
20200228124842 16 115 6.4 8.0 0.00 0.00 0.00 34 1017.2
20200228124329 15 122 6.4 8.0 0.00 0.00 0.00 37 1017.2
20200228123836 15 175 3.2 6.4 0.00 0.00 0.00 47 1017.1
20200228123343 15 175 3.2 6.4 0.00 0.00 0.00 47 1017.2
20200228122830 15 174 4.8 6.4 0.00 0.00 0.00 49 1017.1
20200228122338 15 170 4.8 6.4 0.00 0.00 0.00 48 1017.0
20200228121828 15 172 1.6 8.0 0.00 0.00 0.00 45 1017.0
20200228121339 15 172 4.8 8.0 0.00 0.00 0.00 44 1016.9
20200228120829 15 142 4.8 8.0 0.00 0.00 0.00 43 1016.9
20200228120339 15 146 4.8 8.0 0.00 0.00 0.00 47 1016.8
20200228115825 15 149 4.8 6.4 0.00 0.00 0.00 47 1016.9
20200228115332 15 150 3.2 4.8 0.00 0.00 0.00 47 1016.8
20200228114840 15 150 3.2 4.8 0.00 0.00 0.00 46 1016.8
20200228114326 15 150 1.6 6.4 0.00 0.00 0.00 41 1016.8
20200228113833 15 154 4.8 6.4 0.00 0.00 0.00 40 1016.7
20200228113341 15 172 3.2 6.4 0.00 0.00 0.00 41 1016.8
20200228112831 15 172 3.2 6.4 0.00 0.00 0.00 42 1016.9
20200228112338 15 172 3.2 6.4 0.00 0.00 0.00 43 1016.8
20200228111824 15 172 4.8 6.4 0.00 0.00 0.00 47 1016.8
20200228111331 15 172 4.8 6.4 0.00 0.00 0.00 48 1016.8
20200228110839 14 172 3.2 6.4 0.00 0.00 0.00 53 1016.9
20200228110325 13 172 1.6 6.4 0.00 0.00 0.00 56 1017.1
20200228105833 13 165 3.2 8.0 0.00 0.00 0.00 54 1017.3
20200228105340 14 95 4.8 8.0 0.00 0.00 0.00 54 1017.4
20200228104826 14 93 4.8 9.7 0.00 0.00 0.00 57 1017.4
20200228104334 15 98 6.4 9.7 0.00 0.00 0.00 57 1017.5
20200228103824 15 99 4.8 8.0 0.00 0.00 0.00 54 1017.6
20200228103331 15 101 4.8 9.7 0.00 0.00 0.00 51 1017.7
20200228102838 16 119 4.8 8.0 0.00 0.00 0.00 46 1017.7
20200228102325 15 142 6.4 8.0 0.00 0.00 0.00 48 1017.9
20200228101832 16 140 8.0 8.0 0.00 0.00 0.00 52 1017.9
20200228101339 16 140 4.8 8.0 0.00 0.00 0.00 54 1017.9
20200228100825 15 158 4.8 8.0 0.00 0.00 0.00 61 1018.0